EST,Max TemperatureF,Mean TemperatureF,Min TemperatureF,Max Dew PointF,MeanDew PointF,Min DewpointF,Max Humidity, Mean Humidity, Min Humidity, Max Sea Level PressureIn, Mean Sea Level PressureIn, Min Sea Level PressureIn, Max VisibilityMiles, Mean VisibilityMiles, Min VisibilityMiles, Max Wind SpeedMPH, Mean Wind SpeedMPH, Max Gust SpeedMPH,PrecipitationIn, CloudCover, Events, WindDirDegrees
2012-12-1,60,53,45,45,42,39,76,66,55,30.25,30.21,30.14,10,9,7,18,10,23,0.00,6,,186
2012-12-2,59,56,53,57,52,44,100,81,62,30.14,30.09,30.04,10,5,0,21,13,28,0.27,8,Fog-Rain,204
2012-12-3,67,62,57,58,57,52,100,86,72,30.15,30.11,30.06,10,6,0,16,10,22,T,6,Fog,191
2012-12-4,64,52,39,58,48,38,100,84,67,30.21,30.08,30.00,10,8,2,22,12,26,0.49,7,Rain,247
2012-12-5,42,35,27,37,30,23,100,80,59,30.40,30.34,30.22,10,10,7,13,7,15,0.00,3,,11
2012-12-6,45,36,26,43,30,22,92,77,62,30.33,30.16,29.99,10,10,4,13,7,15,0.01,5,Rain,138
2012-12-7,52,48,44,52,46,44,100,97,93,30.01,29.94,29.84,6,2,0,14,6,18,0.54,8,Fog-Rain,167
2012-12-8,53,48,42,52,47,40,100,93,86,30.08,29.92,29.83,10,5,2,15,9,20,0.04,8,Rain,279
2012-12-9,58,49,40,57,47,37,100,93,86,30.09,29.88,29.69,10,6,0,18,11,23,0.40,8,Rain,142
2012-12-10,55,43,31,54,37,28,100,90,79,29.95,29.76,29.68,10,6,0,18,11,23,0.01,8,Rain-Snow,291
2012-12-11,33,30,27,30,25,21,92,77,61,30.26,30.10,29.94,10,9,4,15,9,18,T,6,Snow,247
2012-12-12,43,33,22,26,22,20,92,68,43,30.43,30.38,30.28,10,9,6,8,5,10,0.00,0,,182
2012-12-13,46,35,23,27,24,21,88,64,40,30.44,30.38,30.27,10,10,5,12,7,16,0.00,1,,175
2012-12-14,52,42,32,29,27,25,78,58,38,30.32,30.25,30.18,10,10,8,14,8,17,0.00,3,,196
2012-12-15,53,45,37,44,35,27,80,67,53,30.18,29.98,29.78,10,10,9,22,10,26,0.01,8,Rain,163
2012-12-16,58,49,40,52,47,39,93,82,71,29.78,29.73,29.65,10,10,7,21,10,29,0.00,5,,210
2012-12-17,48,43,37,45,42,37,100,93,86,29.76,29.69,29.58,7,2,0,13,5,14,0.13,8,Fog-Rain,33
2012-12-18,41,39,37,37,35,32,100,88,76,29.88,29.78,29.64,10,8,2,20,10,26,0.01,8,Rain,250
2012-12-19,45,39,33,37,35,32,92,81,70,30.11,30.00,29.78,10,6,4,22,8,26,0.00,7,,274
2012-12-20,51,42,32,49,40,26,100,88,76,29.95,29.49,29.23,10,6,2,39,22,51,0.80,8,Rain-Snow,173
2012-12-21,32,30,28,27,25,24,92,85,78,30.04,29.65,29.43,10,5,1,38,27,49,0.10,8,Rain-Snow,266
2012-12-22,30,27,24,23,21,18,85,74,63,30.25,30.15,30.05,10,10,10,23,12,31,0.00,5,,252
2012-12-23,40,33,26,28,23,19,85,72,59,30.08,29.99,29.96,10,10,7,12,7,15,0.00,3,,258
2012-12-24,38,32,25,37,30,22,100,89,78,30.03,29.87,29.77,8,3,0,20,7,23,0.09,7,Fog-Rain,104
2012-12-25,34,33,31,30,28,25,92,82,72,30.22,30.15,29.99,10,7,3,21,11,26,T,8,Snow,26
2012-12-26,33,30,26,28,26,22,92,82,72,30.06,29.73,29.59,10,3,0,31,20,37,0.68,8,Fog-Snow,25
2012-12-27,29,26,23,23,22,21,88,82,75,30.20,30.11,29.90,10,9,7,18,7,23,0.00,7,,290
2012-12-28,32,26,19,27,23,17,100,86,72,30.19,30.08,29.89,10,8,4,15,5,18,T,7,Snow,109
2012-12-29,31,28,25,28,25,21,100,91,81,30.19,29.89,29.73,5,2,1,23,12,30,0.18,8,Snow,313
2012-12-30,26,23,20,21,18,15,92,80,68,30.45,30.37,30.21,10,8,7,23,12,29,T,6,,240
2012-12-31,33,29,24,31,27,20,92,81,69,30.30,30.14,30.05,10,5,1,20,12,24,0.01,8,Snow,222